When you browse on this site, cookies collect data to enhance your experience and personalize the content and advertising you see.
Visit our Privacy Policy to learn more. By continuing to use the site, you agree to this use of cookies and data.

Hourly Weather Asadabad

Today, 9 August, Sunday

Time Temperature Precipitation Wind Pressure Humidity
00:00 +29°C° 2 mm 1 mps 653 mmHg 76%
01:00 +28°C° 2 mm 1 mps 653 mmHg 76%
02:00 +28°C° 2 mm 1 mps 653 mmHg 77%
03:00 +28°C° 0.7 mm 1 mps 653 mmHg 77%
04:00 +28°C° 0.7 mm 1 mps 652 mmHg 78%
05:00 +27°C° 0 mm 1 mps 652 mmHg 82%
06:00 +28°C° 1.4 mm 1 mps 653 mmHg 78%
07:00 +28°C° 1.4 mm 1 mps 653 mmHg 75%
08:00 +29°C° 1.4 mm 1 mps 653 mmHg 71%
09:00 +30°C° 0.5 mm 1 mps 653 mmHg 68%
10:00 +31°C° 0.5 mm 2 mps 653 mmHg 64%
11:00 +31°C° 0 mm 2 mps 653 mmHg 61%
12:00 +32°C° 0.3 mm 2 mps 653 mmHg 60%
13:00 +32°C° 0.3 mm 2 mps 653 mmHg 59%
14:00 +34°C° 0.3 mm 2 mps 653 mmHg 57%
15:00 +32°C° 1.3 mm 2 mps 652 mmHg 59%
16:00 +32°C° 1.3 mm 2 mps 652 mmHg 62%
17:00 +31°C° 0 mm 2 mps 652 mmHg 62%
18:00 +30°C° 2.8 mm 1 mps 652 mmHg 67%
19:00 +30°C° 2.8 mm 1 mps 652 mmHg 73%
20:00 +29°C° 2.8 mm 1 mps 653 mmHg 78%
21:00 +28°C° 1.6 mm 1 mps 653 mmHg 78%
22:00 +28°C° 1.6 mm 1 mps 653 mmHg 78%
23:00 +28°C° 1.6 mm 1 mps 653 mmHg 78%

Tomorrow, 10 August, Monday

Time Temperature Precipitation Wind Pressure Humidity
00:00 +28°C° 1.1 mm 1 mps 653 mmHg 78%
01:00 +27°C° 1.1 mm 1 mps 653 mmHg 79%
02:00 +27°C° 1.1 mm 1 mps 653 mmHg 79%
03:00 +27°C° 0.2 mm 1 mps 653 mmHg 80%
04:00 +26°C° 0.2 mm 1 mps 653 mmHg 81%
05:00 +26°C° 0.2 mm 1 mps 652 mmHg 82%
06:00 +27°C° 0.1 mm 1 mps 653 mmHg 78%
07:00 +27°C° 0.1 mm 1 mps 653 mmHg 74%
08:00 +28°C° 0.1 mm 1 mps 654 mmHg 70%
09:00 +29°C° 0.4 mm 2 mps 654 mmHg 68%
10:00 +30°C° 0.4 mm 2 mps 654 mmHg 66%
11:00 +31°C° 0.4 mm 2 mps 654 mmHg 64%
12:00 +31°C° 0.3 mm 2 mps 654 mmHg 63%
13:00 +31°C° 0.3 mm 2 mps 654 mmHg 62%
14:00 +32°C° 0.3 mm 2 mps 653 mmHg 61%
15:00 +31°C° 0.6 mm 2 mps 653 mmHg 62%
16:00 +31°C° 0.6 mm 2 mps 653 mmHg 63%
17:00 +31°C° 0.6 mm 2 mps 653 mmHg 64%
18:00 +30°C° 1 mm 2 mps 653 mmHg 69%
19:00 +29°C° 1 mm 1 mps 653 mmHg 73%
20:00 +28°C° 1 mm 1 mps 654 mmHg 78%
21:00 +28°C° 0.3 mm 1 mps 654 mmHg 78%
22:00 +28°C° 0.3 mm 1 mps 654 mmHg 79%
23:00 +26°C° 0.3 mm 0 mps 654 mmHg 80%

Day after tomorrow, 11 August, Tuesday

Time Temperature Precipitation Wind Pressure Humidity
00:00 +26°C° 0 mm 0 mps 654 mmHg 80%
01:00 +27°C° 0 mm 1 mps 654 mmHg 80%
02:00 +27°C° 0 mm 1 mps 653 mmHg 80%
03:00 +27°C° 0.1 mm 1 mps 653 mmHg 80%
04:00 +26°C° 0.1 mm 1 mps 653 mmHg 80%
05:00 +26°C° 0.1 mm 1 mps 653 mmHg 80%
06:00 +25°C° 0 mm 0 mps 653 mmHg 75%
07:00 +26°C° 0 mm 0 mps 654 mmHg 69%
08:00 +27°C° 0 mm 0 mps 654 mmHg 64%
09:00 +30°C° 0 mm 1 mps 654 mmHg 61%
10:00 +31°C° 0 mm 2 mps 654 mmHg 59%
11:00 +32°C° 0 mm 2 mps 654 mmHg 56%
12:00 +32°C° 0 mm 2 mps 654 mmHg 55%
13:00 +34°C° 0 mm 3 mps 654 mmHg 53%
14:00 +34°C° 0 mm 3 mps 654 mmHg 52%
15:00 +34°C° 0.2 mm 3 mps 653 mmHg 54%
16:00 +34°C° 0.2 mm 2 mps 653 mmHg 56%
17:00 +32°C° 0.2 mm 2 mps 653 mmHg 58%
18:00 +31°C° 0.5 mm 2 mps 653 mmHg 64%
19:00 +30°C° 0.5 mm 1 mps 653 mmHg 70%
20:00 +27°C° 0.5 mm 0 mps 653 mmHg 76%
21:00 +27°C° 0.4 mm 0 mps 653 mmHg 77%
22:00 +27°C° 0.4 mm 0 mps 654 mmHg 78%
23:00 +26°C° 0.4 mm 0 mps 654 mmHg 79%

12 August, Wednesday

Time Temperature Precipitation Wind Pressure Humidity
00:00 +26°C° 0.2 mm 0 mps 654 mmHg 79%
01:00 +26°C° 0.2 mm 0 mps 653 mmHg 79%
02:00 +26°C° 0.2 mm 0 mps 653 mmHg 80%
03:00 +25°C° 0 mm 0 mps 653 mmHg 79%
04:00 +27°C° 0 mm 1 mps 653 mmHg 77%
05:00 +27°C° 0 mm 1 mps 653 mmHg 76%
06:00 +26°C° 0 mm 0 mps 653 mmHg 70%
07:00 +26°C° 0 mm 0 mps 653 mmHg 65%
08:00 +27°C° 0 mm 0 mps 653 mmHg 59%
09:00 +30°C° 0.1 mm 1 mps 654 mmHg 57%
10:00 +31°C° 0.1 mm 1 mps 654 mmHg 55%
11:00 +32°C° 0.1 mm 2 mps 654 mmHg 54%
12:00 +34°C° 0 mm 2 mps 654 mmHg 51%
13:00 +35°C° 0 mm 3 mps 654 mmHg 48%
14:00 +36°C° 0 mm 3 mps 654 mmHg 46%
15:00 +35°C° 0.1 mm 3 mps 653 mmHg 49%
16:00 +35°C° 0.1 mm 3 mps 653 mmHg 53%
17:00 +34°C° 0.1 mm 3 mps 653 mmHg 56%
18:00 +32°C° 0.4 mm 2 mps 653 mmHg 62%
19:00 +31°C° 0.4 mm 2 mps 653 mmHg 69%
20:00 +30°C° 0.4 mm 1 mps 653 mmHg 75%
21:00 +29°C° 0.2 mm 1 mps 654 mmHg 76%
22:00 +29°C° 0.2 mm 1 mps 654 mmHg 77%
23:00 +29°C° 0.2 mm 1 mps 654 mmHg 79%

13 August, Thursday

Time Temperature Precipitation Wind Pressure Humidity
00:00 +28°C° 0.2 mm 1 mps 654 mmHg 79%
01:00 +26°C° 0.2 mm 0 mps 654 mmHg 79%
02:00 +25°C° 0.2 mm 0 mps 654 mmHg 79%
03:00 +25°C° 0.1 mm 0 mps 653 mmHg 78%
04:00 +27°C° 0.1 mm 1 mps 653 mmHg 77%
05:00 +26°C° 0.1 mm 1 mps 653 mmHg 76%
06:00 +25°C° 0 mm 0 mps 653 mmHg 70%
07:00 +26°C° 0 mm 0 mps 653 mmHg 64%
08:00 +27°C° 0 mm 0 mps 654 mmHg 58%
09:00 +30°C° 0 mm 1 mps 654 mmHg 55%
10:00 +31°C° 0 mm 2 mps 654 mmHg 52%
11:00 +34°C° 0 mm 2 mps 654 mmHg 49%
12:00 +34°C° 0 mm 3 mps 654 mmHg 48%
13:00 +35°C° 0 mm 3 mps 653 mmHg 46%
14:00 +35°C° 0 mm 3 mps 653 mmHg 45%
15:00 +35°C° 0 mm 3 mps 653 mmHg 45%
16:00 +35°C° 0 mm 3 mps 653 mmHg 44%
17:00 +35°C° 0 mm 3 mps 652 mmHg 44%
18:00 +34°C° 0.2 mm 2 mps 653 mmHg 53%
19:00 +31°C° 0.2 mm 2 mps 653 mmHg 62%
20:00 +30°C° 0.2 mm 1 mps 653 mmHg 71%
21:00 +29°C° 0.1 mm 1 mps 653 mmHg 73%
22:00 +29°C° 0.1 mm 1 mps 653 mmHg 75%
23:00 +28°C° 0.1 mm 1 mps 654 mmHg 77%

14 August, Friday

Time Temperature Precipitation Wind Pressure Humidity
00:00 +26°C° 0.3 mm 0 mps 653 mmHg 77%
01:00 +25°C° 0.3 mm 0 mps 653 mmHg 78%
02:00 +25°C° 0.3 mm 0 mps 653 mmHg 79%
03:00 +24°C° 0.1 mm 0 mps 653 mmHg 77%
04:00 +26°C° 0.1 mm 1 mps 653 mmHg 76%
05:00 +26°C° 0.1 mm 1 mps 652 mmHg 74%
06:00 +27°C° 0.2 mm 1 mps 653 mmHg 70%
07:00 +25°C° 0.2 mm 0 mps 653 mmHg 65%
08:00 +26°C° 0.2 mm 0 mps 653 mmHg 61%
09:00 +29°C° 0 mm 1 mps 653 mmHg 57%
10:00 +31°C° 0 mm 2 mps 653 mmHg 53%
11:00 +32°C° 0 mm 2 mps 653 mmHg 49%
12:00 +32°C° 0 mm 2 mps 653 mmHg 47%
13:00 +34°C° 0 mm 3 mps 653 mmHg 45%
14:00 +35°C° 0 mm 3 mps 653 mmHg 42%
15:00 +35°C° 0 mm 3 mps 653 mmHg 43%
16:00 +35°C° 0 mm 3 mps 653 mmHg 44%
17:00 +35°C° 0 mm 3 mps 652 mmHg 45%
18:00 +32°C° 0 mm 2 mps 652 mmHg 55%
19:00 +31°C° 0 mm 2 mps 652 mmHg 64%
20:00 +29°C° 0 mm 1 mps 653 mmHg 74%
21:00 +29°C° 0.2 mm 1 mps 653 mmHg 76%
22:00 +28°C° 0.2 mm 1 mps 653 mmHg 78%
23:00 +28°C° 0.2 mm 1 mps 654 mmHg 80%
Show more